User: anonymous   Login
Location: Unspecified
(0.0000°N, 0.0000°E)
Time: 05:04:53
(UTC+00:00)
Language:

CORVUS BC1 - Orbit

View from above orbital plane
View from above orbital plane
View from above satellite
View from above satellite

Ground track
Ground track

The orbit is defined by the following mean orbital elements,

1 42847U          26150.45397072 +.00000000 +00000-0 +27628-3 0 00007
2 42847  97.4085 313.2996 0012893 143.3424 216.8688 15.06341815    00
Epoch (UTC): 30 May 2026 10:53:43
Eccentricity: 0.0012893
inclination: 97.4085°
perigee height: 538 km
apogee height: 556 km
right ascension of ascending node: 313.2996°
argument of perigee: 143.3424°
revolutions per day: 15.06341815
mean anomaly at epoch: 216.8688°

The dashed part of the orbit path shows where the satellite is in the earth's shadow,  

DLR